Погода в Тарсусе

Турция     36°54′59″N   34°53′44″E
темп.,
°C
ветер,
м/с
пор.,
м/с
влажн.,
%
обл.,
%
осадки,
мм/ч
давл.,
гПа
погр.,
м
13 апреля, вт
вт1300:00+9ссз22530 0.0 102011
03:00+7с22620 0.0 102014
06:00+7ссв22620 0.0 102024
09:00+12всв22490 0.0 1021351
12:00+17ююв22451 0.0 10201531
15:00+18ю324138 0.0 10191987
18:00+15ююз44572 0.0 1020548
21:00+11зюз00715 0.0 102110
14 апреля, ср
ср1400:00+10ссв227299 0.0 102110
03:00+9ссв22785 0.0 102019
06:00+9ссв228127 0.0 102011
09:00+14всв1162100 0.0 1021341
12:00+18ю32495 0.0 10201201
15:00+19ююз43505 0.0 10191335
18:00+17юз43645 0.0 1018632
21:00+12з11846 0.0 101910
15 апреля, чт
чт1500:00+11св1186100 0.0 101910
03:00+11ссв2286100 0.0 101813
06:00+12св118184 0.0 101813
09:00+16св116631 0.0 1018325
12:00+20вюв114770 0.0 10171028
15:00+22ю114471 0.0 10161293
18:00+19ююз33582 0.0 1015290
21:00+14юз01735 0.0 101610
16 апреля, пт
пт1600:00+13св11775 0.0 101611
03:00+12ссв228051 0.0 101512
06:00+12ссв228249 0.0 101512
09:00+18св2361100 0.0 1015338
12:00+22вюв214599 0.0 10151103
15:00+25ююз333635 0.0 10141480
18:00+21ююз335398 0.0 1014181
21:00+15зсз11685 0.0 101511
17 апреля, сб
сб1700:00+14ссв226655 0.0 101511
03:00+14ссв2263100 0.0 101410
06:00+14ссв226567 0.0 101411
09:00+21св22475 0.0 1015334
12:00+25вюв113328 0.0 10141230
15:00+25ююз4336100 0.0 1013813
18:00+22ююз2351100 0.0 101484
21:00+18ссв1155100 0.0 101511